SCP
0 0 0 0 0 0 0 0 0 0 0 0 0 0 0 0 0 0 0 0 0 0 0 0 0 0 0 0 0 0 0 0 0 0 0 0 0 0 0 0 0 0 0
0 0 0 0 0 0 0 0 0 0 0 0 0 0 0 0 0 0 0 0 0 0 0 0 0 0 0 0 0 0 0 0 0 0 0 0 0 0 0 0 0 0 0
0 0 0 0 0 0 0 0 0 0 0 0 0 0 0 0 0 0 0 0 0 0 0 0 0 0 0 0 0 0 0 0 0 0 0 0 0 0 0 0 0 0 0
0 0 0 0 0 0 0 0 0 0 0 0 0 0 0 0 0 0 0 0 0 0 0 0 0 0 0 0 0 0 0 0 0 0 0 0 0 0 0 0 0 0 0
0 0 0 0 0 0 0 0 0 0 0 0 0 0 0 0 0 0 0 0 0 0 0 0 0 0 0 0 0 0 0 0 0 0 0 0 0 0 0 0 0 0 0
0 0 0 0 0 0 0 0 0 0 0 0 0 0 0 0 0 0 0 0 0 0 0 0 0 0 0 0 0 0 0 0 0 0 0 0 0 0 0 0 0 0 0
0 0 0 0 0 0 0 0 0 0 0 0 0 0 0 0 0 0 0 0 0 0 0 0 0 0 0 0 0 0 0 0 0 0 0 0 0 0 0 0 0 0 0
0 0 0 0 0 0 0 0 0 0 0 0 0 0 0 0 0 0 0 0 0 0 0 0 0 0 0 0 0 0 0 0 0 0 0 0 0 0 0 0 0 0 0
0 0 0 0 0 0 0 0 0 0 0 0 0 0 0 0 0 0 0 0 0 0 0 0 0 0 0 0 0 0 0 0 0 0 0 0 0 0 0 0 0 0 0
0 0 0 0 0 0 0 0 0 0 0 0 0 0 0 0 0 0 0 0 0 0 0 0 0 0 0 0 0 0 0 0 0 0 0 0 0 0 0 0 0 0 0
0 0 0 0 0 0 0 0 0 0 0 0 0 0 0 0 0 0 0 0 0 0 0 0 0 0 0 0 0 0 0 0 0 0 0 0 0 0 0 0 0 0 0
0 0 0 0 0 0 0 0 0 0 0 0 0 0 0 0 0 0 0 0 0 0 0 0 0 0 0 0 0 0 0 0 0 0 0 0 0 0 0 0 0 0 0
0 0 0 0 0 0 0 0 0 0 0 0 0 0 0 0 0 0 0 0 0 0 0 0 0 0 0 0 0 0 0 0 0 0 0 0 0 0 0 0 0 0 0
0 0 0 0 0 0 0 0 0 0 0 0 0 0 0 0 0 0 0 0 0 0 0 0 0 0 0 0 0 0 0 0 0 0 0 0 0 0 0 0 0 0 0
0 0 0 0 0 0 0 0 0 0 0 0 0 0 0 0 0 0 0 0 0 0 0 0 0 0 0 0 0 0 0 0 0 0 0 0 0 0 0 0 0 0 0
0 0 0 0 0 0 0 0 0 0 0 0 0 0 0 0 0 0 0 0 0 0 0 0 0 0 0 0 0 0 0 0 0 0 0 0 0 0 0 0 0 0 0
0 0 0 0 0 0 0 0 0 0 0 0 0 0 0 0 0 0 0 0 0 0 0 0 0 0 0 0 0 0 0 0 0 0 0 0 0 0 0 0 0 0 0
0 0 0 0 0 0 0 0 0 0 0 0 0 0 0 0 0 0 0 0 0 0 0 0 0 0 0 0 0 0 0 0 0 0 0 0 0 0 0 0 0 0 0
0 0 0 0 0 0 0 0 0 0 0 0 0 0 0 0 0 0 0 0 0 0 0 0 0 0 0 0 0 0 0 0 0 0 0 0 0 0 0 0 0 0 0
0 0 0 0 0 0 0 0 0 0 0 0 0 0 0 0 0 0 0 0 0 0 0 0 0 0 0 0 0 0 0 0 0 0 0 0 0 0 0 0 0 0 0
0 0 0 0 0 0 0 0 0 0 0 0 0 0 0 0 0 0 0 0 0 0 0 0 0 0 0 0 0 0 0 0 0 0 0 0 0 0 0 0 0 0 0
0 0 0 0 0 0 0 0 0 0 0 0 0 0 0 0 0 0 0 0 0 0 0 0 0 0 0 0 0 0 0 0 0 0 0 0 0 0 0 0 0 0 0
0 0 0 0 0 0 0 0 0 0 0 0 0 0 0 0 0 0 0 0 0 0 0 0 0 0 0 0 0 0 0 0 0 0 0 0 0 0 0 0 0 0 0
0 0 0 0 0 0 0 0 0 0 0 0 0 0 0 0 0 0 0 0 0 0 0 0 0 0 0 0 0 0 0 0 0 0 0 0 0 0 0 0 0 0 0
0 0 0 0 0 0 0 0 0 0 0 0 0 0 0 0 0 0 0 0 0 0 0 0 0 0 0 0 0 0 0 0 0 0 0 0 0 0 0 0 0 0 0
0 0 0 0 0 0 0 0 0 0 0 0 0 0 0 0 0 0 0 0 0 0 0 0 0 0 0 0 0 0 0 0 0 0 0 0 0 0 0 0 0 0 0
Wind_Speed
4 4 3 4 4 4 4 4 4 4 4 4 4 4 4 5 4 4 3 7 8 9 9 9 9 8 8 7 8 8 8 8 8 8 9 9 9 9 9 8 7 7 7
4 4 4 4 4 4 4 4 5 5 4 4 4 5 5 5 5 5 4 5 8 9 9 10 10 9 9 8 8 8 8 8 8 8 8 9 9 9 8 8 7 7 6
5 4 4 4 4 4 4 3 4 3 4 4 4 5 4 5 5 5 5 4 4 7 9 10 10 10 10 10 9 9 9 8 8 8 8 8 8 8 7 7 7 6 5
5 4 4 4 4 3 3 4 3 3 3 3 3 3 4 4 6 6 5 4 4 4 6 9 9 10 10 10 10 10 10 9 9 8 8 8 8 7 7 6 6 5 4
4 4 4 4 4 3 4 5 3 3 3 3 3 3 3 3 4 5 5 6 5 4 4 6 8 9 9 10 10 10 10 10 10 9 9 8 8 7 7 6 5 5 4
4 3 3 4 3 3 4 4 4 4 3 3 3 2 2 2 3 4 5 5 4 5 5 4 4 5 8 8 9 10 11 11 11 10 10 9 9 8 7 6 6 5 5
4 3 3 3 3 4 5 5 4 4 4 2 2 0 1 1 2 3 3 4 5 5 5 5 4 3 3 7 8 9 11 11 11 11 11 10 9 8 8 7 6 6 5
4 3 3 3 3 3 5 5 5 4 3 4 4 2 1 1 1 2 2 4 5 4 5 6 5 5 4 3 5 8 8 9 11 11 11 10 10 9 8 8 7 7 6
4 3 4 3 3 4 4 6 6 7 5 4 4 4 4 4 2 1 3 3 4 4 5 5 6 6 6 4 4 7 9 8 10 11 11 10 10 10 9 9 8 7 6
4 3 3 4 4 4 4 5 6 5 5 4 3 3 2 3 3 2 1 2 3 5 5 5 6 6 6 5 6 8 9 9 10 11 11 11 10 10 10 9 8 7 6
4 4 3 3 3 3 4 5 5 6 5 5 4 4 3 2 2 3 2 2 1 2 4 4 4 5 6 6 5 7 10 10 10 10 11 10 10 10 9 9 8 8 7
3 4 4 3 3 3 4 5 5 6 6 6 5 4 4 4 4 3 3 2 2 2 2 3 3 4 4 5 7 9 11 10 10 9 8 8 8 8 9 8 8 8 8
3 5 4 3 3 3 4 4 5 5 6 6 6 5 4 4 3 4 3 2 2 1 1 2 3 3 4 4 4 8 9 10 9 8 7 6 6 7 7 8 8 7 7
4 5 5 4 4 3 3 3 3 4 4 6 7 6 4 5 4 4 4 4 3 1 2 3 1 3 3 3 4 7 5 9 9 9 7 7 7 7 6 6 6 6 6
4 5 5 5 4 4 3 2 2 3 3 4 5 5 4 4 4 4 3 4 5 4 4 3 2 2 3 3 4 4 4 7 9 8 7 7 7 7 6 6 5 4 4
6 7 6 6 5 4 4 2 1 2 3 3 3 4 4 3 4 3 3 3 3 4 3 3 2 1 2 3 5 4 4 6 7 7 7 6 6 6 6 6 5 5 4
7 7 7 6 6 6 5 3 2 1 2 2 3 4 4 4 4 4 3 3 3 3 3 2 1 1 3 3 3 3 3 3 3 6 6 6 6 6 6 5 5 5 4
7 7 6 6 6 6 6 5 4 2 1 1 2 3 4 3 4 4 3 4 3 4 4 4 2 2 2 3 4 4 3 3 3 6 7 7 6 6 6 6 5 5 5
7 7 7 7 7 6 6 5 4 4 4 2 2 2 3 4 4 3 3 3 3 3 3 4 3 2 2 2 4 4 5 4 4 6 7 7 7 7 6 6 6 5 5
7 7 7 7 6 6 5 5 5 4 4 4 3 2 1 2 3 3 3 3 3 4 4 4 3 3 2 3 3 4 4 3 4 4 6 6 8 8 7 6 6 6 5
7 6 7 7 7 5 5 5 4 4 4 4 3 2 1 2 3 3 3 3 4 3 3 4 3 3 3 4 4 3 5 5 4 3 4 4 4 4 5 6 7 7 7
7 7 7 7 7 6 9 9 6 4 4 4 3 3 2 3 2 2 3 5 5 5 5 4 3 4 4 4 4 5 5 5 3 3 4 4 3 4 4 3 6 8 8
6 6 7 7 7 8 11 11 10 5 5 4 4 3 3 3 3 2 3 4 3 3 5 4 5 4 5 6 7 6 5 4 4 4 4 4 3 4 4 5 8 8 8
5 5 6 7 7 9 12 10 9 6 4 4 4 3 3 3 2 3 4 4 3 3 2 3 3 3 4 5 6 6 7 7 6 3 3 4 2 3 3 4 8 9 8
4 4 4 6 7 8 13 11 8 4 4 5 4 4 3 2 4 5 5 5 4 3 4 6 6 5 7 9 9 8 7 7 5 2 2 4 3 3 2 3 5 8 8
3 4 4 5 6 7 12 12 9 3 4 4 4 4 5 4 4 5 3 4 4 3 3 5 6 7 7 8 8 6 7 7 5 3 2 3 4 3 3 1 2 3 4
Wind_Direction
240 229 228 223 218 214 214 213 213 213 214 216 220 224 232 235 235 231 237 239 233 223 211 200 192 186 180 171 164 158 151 147 145 144 141 138 136 134 130 128 126 126 122
242 236 235 229 223 216 214 210 211 213 215 212 223 223 227 229 229 225 222 233 230 222 217 208 199 193 188 182 174 167 163 157 154 152 149 146 143 141 141 139 137 135 130
246 239 238 234 226 213 209 207 210 207 215 215 228 229 225 223 222 218 214 210 216 220 217 213 206 199 195 190 183 177 173 169 165 163 159 156 154 152 152 151 149 148 145
246 237 236 238 224 207 201 200 198 200 216 216 225 232 226 220 222 215 205 199 196 204 215 214 207 204 203 198 191 185 181 178 175 174 171 168 166 166 165 164 163 162 160
248 233 232 235 222 212 207 211 194 187 206 219 229 232 227 222 218 212 203 199 194 192 196 214 210 204 206 205 201 194 191 188 186 185 182 179 176 176 177 178 179 180 183
264 245 240 236 222 219 216 205 194 190 191 203 235 239 238 232 212 206 206 198 193 195 194 201 202 209 209 206 207 205 201 197 195 194 191 189 189 188 190 193 194 197 200
273 251 251 239 222 220 218 207 191 193 194 158 150 273 315 282 220 216 201 193 197 197 189 194 190 188 205 210 209 212 211 205 202 202 200 198 197 197 201 202 204 207 208
281 263 241 236 225 224 223 213 193 179 187 173 164 152 219 293 274 230 201 204 205 192 198 201 192 190 190 191 206 213 218 215 210 209 208 205 201 202 206 207 210 215 215
288 272 260 245 230 220 223 216 205 190 189 184 179 166 169 206 226 258 217 206 194 193 203 196 198 196 194 192 196 212 216 217 219 217 214 211 206 205 206 209 214 216 216
306 292 273 252 236 226 226 223 214 204 185 182 186 198 179 157 164 199 267 217 198 200 202 203 202 199 196 195 199 202 209 212 218 221 220 216 212 209 209 211 213 213 212
314 310 293 269 249 235 230 225 216 206 197 188 179 176 175 168 171 162 191 204 207 211 202 201 198 195 196 197 198 204 205 208 213 221 224 220 214 210 209 211 212 210 211
319 322 309 287 267 250 236 227 219 208 207 201 194 183 170 169 181 169 169 179 196 208 199 194 196 193 191 195 206 205 204 204 207 213 219 219 214 209 210 210 210 211 214
328 329 326 309 291 272 250 228 218 215 208 203 201 199 190 185 164 160 159 160 169 179 189 207 200 190 190 185 203 204 205 200 200 203 205 206 202 199 207 207 210 213 215
324 329 330 325 316 306 282 239 224 217 207 207 206 196 189 194 182 172 167 158 155 172 204 217 193 194 189 183 199 195 200 195 193 194 197 200 197 193 196 200 204 208 210
341 345 340 340 338 336 326 268 230 223 204 204 204 197 193 191 184 181 171 165 163 180 209 206 196 188 184 179 185 182 184 193 187 183 186 191 190 187 184 188 193 193 189
351 352 355 356 356 351 341 326 269 229 204 200 192 187 190 180 174 178 178 175 172 171 190 192 193 166 171 171 169 166 178 178 179 172 173 178 181 182 182 183 184 179 173
356 358 358 1 3 3 357 355 349 289 204 193 188 185 187 177 171 174 178 175 176 167 179 164 146 140 156 154 141 144 149 152 160 166 162 161 162 166 171 167 164 160 157
358 359 357 2 4 5 4 7 8 16 63 147 172 175 175 164 170 165 171 177 178 177 168 162 152 144 138 149 138 134 131 132 128 138 140 142 145 145 144 145 143 143 146
357 359 2 4 1 0 2 6 13 27 39 53 78 124 146 150 164 153 159 175 178 175 158 150 150 134 112 126 123 116 113 105 111 112 113 114 119 126 132 135 137 136 141
360 360 359 358 356 356 2 9 21 35 40 43 45 66 107 144 162 158 171 180 171 168 160 151 146 138 128 128 131 132 124 109 107 102 94 93 95 97 105 119 125 128 134
3 357 360 360 358 359 7 14 22 35 39 40 31 28 58 111 159 170 169 175 171 167 158 160 157 149 151 152 156 143 134 120 96 99 102 88 86 80 77 85 97 108 117
359 3 5 1 3 3 9 25 30 31 33 41 36 21 34 48 65 120 149 166 174 173 164 161 160 161 162 153 143 143 137 140 133 128 109 89 83 83 70 74 90 99 103
358 3 2 3 1 357 19 31 36 38 36 35 32 29 40 40 53 77 91 106 123 152 165 160 161 169 165 164 153 148 145 133 119 133 114 90 72 75 60 69 88 95 100
357 359 1 360 360 4 18 29 39 39 38 32 24 27 41 32 48 94 97 86 72 63 110 140 157 168 161 156 152 143 132 111 95 90 97 105 91 77 57 49 71 87 94
358 1 358 3 4 359 14 29 37 28 34 28 20 20 24 40 59 89 100 101 86 65 70 90 101 111 129 137 136 130 134 134 124 109 84 112 123 104 74 45 50 68 80
347 357 5 3 3 358 7 22 28 26 28 19 15 14 23 47 64 79 99 111 105 86 88 85 81 81 95 115 123 139 149 146 131 136 145 120 134 133 114 67 39 44 63